Location: Boulin
(43.2500°N, 0.1333°E)
Time: 04:15:03
(UTC+00:00)

Cosmos 1933 - Pass Details

Date: 25 March 2026
Orbit: 507 x 515 km, 82.5° (Epoch: 15 April)

Event Time Altitude Azimuth Distance (km) Brightness Sun altitude
Exits shadow 03:45:33 55° 129° (SE) 621 3.6 -23.3°
Maximum altitude 03:45:59 60° 96° (E) 592 3.6 -23.3°
Drops below altitude 10° 03:49:45 10° 16° (NNE) 1,743 6.4 -22.6°
Sets 03:51:54 0° 12° (NNE) 2,633 7.3 -22.3°
